Погода в Улан-Холе

Россия / Республика Калмыкия     45°26′18″N   46°51′11″E
темп.,
°C
ветер,
м/с
пор.,
м/с
влажн.,
%
обл.,
%
осадки,
мм/ч
давл.,
гПа
погр.,
м
4 марта, чт
чт400:000з7138616 0.0 1021377
03:000зсз612838 0.0 1022363
06:00−1зсз5109270 0.0 1024295
09:00+2зсз796938 0.0 1025918
12:00+5з78500 0.0 10251106
15:00+6зюз67460 0.0 10231117
18:00+4юз44610 0.0 102257
21:00+3ююз58690 0.0 1022121
5 марта, пт
пт500:00+1ююз58740 0.0 1021120
03:00+1юз45730 0.0 102176
06:000юз45750 0.0 102174
09:00+5ююз45640 0.0 1021210
12:00+9ююз66490 0.0 1020868
15:00+10юз67400 0.0 1018929
18:00+7ююз45520 0.0 101851
21:00+4ю58782 0.0 1019144
6 марта, сб
сб600:00+3ю58840 0.0 1019119
03:00+3ююз45840 0.0 101885
06:00+2ю58810 0.0 1017104
09:00+6ююз696330 0.0 1017305
12:00+12ююз68429 0.0 1016496
15:00+14з683214 0.0 10141145
18:00+10юз344330 0.0 101327
21:00+8ююз455765 0.0 101276
7 марта, вс
вс700:00+7сз81384100 0.0 1013499
03:00+3сз101281100 0.0 1016952
06:00+1сз81182100 0.6 1019914
09:00+1сз6865100 0.8 1023953
12:00+2сз8964100 0.3 10241225
15:00+3сз775181 0.4 10231432
18:00+1зсз46563 0.0 1024201
21:000зюз34541 0.0 102461
8 марта, пн
пн800:00−1зюз34550 0.0 102353
03:00−1юз47650 0.0 1022141
06:00−2юз58650 0.0 1022163
09:00+2зюз78480 0.0 1022914
12:00+5зюз68360 0.0 10211223
15:00+6зюз68340 0.0 10191384
18:00+4юз465630 0.0 101991
21:00+2юз486065 0.0 1019156